リニア彗星

235P/LINEAR (2018)

English version
Home page
Updated on March 5, 2020

---------------------------------------------------------------------

・ プロフィール

・ 写真集

・ 軌道要素

Epoch 2018 Mar. 23.0 TT = JDT 2458200.5
T 2018 Mar. 17.64699 TT                                 MPCW
q   2.7322514            (2000.0)            P               Q
n   0.12360227     Peri.  333.79053     -0.99732970     -0.03501580
a   3.9913372      Node   204.45945     +0.05076620     -0.96326373
e   0.3154546      Incl.    8.90435     -0.05250021     -0.26626467
P   7.97
From 215 observations 2002 Jan. 12-2018 May 19, mean residual 0".6.

・ 光度変化

        m1 = 6.0 + 5 logΔ + 25.0 log r

---------------------------------------------------------------------

軌道要素はM.P.E.C. 2018-K95に掲載されたものです。
光度グラフはComet for Windowsで作成したものです。

---------------------------------------------------------------------

Copyright(C) Seiichi Yoshida (comet@aerith.net). All rights reserved.